Location: *
(28.3744°N, 81.5492°W)
Time: 02:47:48
(UTC+00:00)

Cosmos 2369 Rocket - Pass Details

Date: 15 June 2025
Orbit: 827 x 852 km, 71.0° (Epoch: 11 July)

Event Time Altitude Azimuth Distance (km) Brightness Sun altitude
Exits shadow 09:14:10 21° 244° (WSW) 1,817 3.3 -14.7°
Maximum altitude 09:17:09 34° 294° (WNW) 1,362 3.0 -14.2°
Drops below altitude 10° 09:22:18 10° 359° (N) 2,481 5.1 -13.3°
Sets 09:24:59 0° 8° (N) 3,419 6.1 -12.8°
